Location: Unspecified
(0.0000°N, 0.0000°E)
Time: 08:19:22
(UTC+00:00)

KAITUO 1B - Visible Passes

Search period start: 23 September 2023 00:00
Search period end: 03 October 2023 00:00
Orbit: 399 x 412 km, 97.4° (Epoch: 22 September)

Date Brightness Start Highest point End Pass type
(mag) Time Alt. Az. Time Alt. Az. Time Alt. Az.
23 Sep ? 19:40:19 10° SW 19:41:52 13° WSW 19:43:26 10° WNW visible
24 Sep ? 18:50:13 10° SSE 18:53:19 66° E 18:56:24 10° N visible
25 Sep ? 19:34:05 10° SW 19:36:10 17° WSW 19:38:15 10° WNW visible
26 Sep ? 18:44:18 10° SSE 18:47:19 47° E 18:50:19 10° N visible
27 Sep ? 19:27:25 10° SSW 19:29:53 22° WSW 19:32:20 10° NW visible
28 Sep ? 18:37:53 10° SE 18:40:44 34° E 18:43:34 10° NNE visible
29 Sep ? 19:20:15 10° SSW 19:23:00 29° W 19:25:44 10° NW visible
30 Sep ? 18:30:59 10° SE 18:33:35 24° E 18:36:09 10° NNE visible
01 Oct ? 19:12:35 10° S 19:15:32 42° WSW 19:18:28 10° NNW visible
02 Oct ? 18:23:40 10° ESE 18:25:50 18° E 18:27:59 10° NE visible
